When you browse on this site, cookies collect data to enhance your experience and personalize the content and advertising you see.
Visit our Privacy Policy to learn more. By continuing to use the site, you agree to this use of cookies and data.
EN

Hourly Weather Svapskie Dvory

Today, 7 August, Friday

Time Temperature Precipitation Wind Pressure Humidity
00:00 +20°C° 0 mm 2 mps 750 mmHg 75%
01:00 +20°C° 0 mm 2 mps 750 mmHg 79%
02:00 +19°C° 0 mm 2 mps 750 mmHg 83%
03:00 +19°C° 0 mm 3 mps 750 mmHg 86%
04:00 +19°C° 0 mm 3 mps 750 mmHg 89%
05:00 +19°C° 0 mm 3 mps 750 mmHg 92%
06:00 +20°C° 0 mm 4 mps 751 mmHg 86%
07:00 +21°C° 0 mm 4 mps 751 mmHg 80%
08:00 +22°C° 0 mm 4 mps 751 mmHg 74%
09:00 +23°C° 0 mm 4 mps 751 mmHg 69%
10:00 +25°C° 0 mm 5 mps 751 mmHg 63%
11:00 +26°C° 0 mm 5 mps 751 mmHg 58%
12:00 +26°C° 0 mm 5 mps 751 mmHg 57%
13:00 +26°C° 0 mm 5 mps 751 mmHg 56%
14:00 +26°C° 0 mm 5 mps 751 mmHg 55%
15:00 +26°C° 0 mm 5 mps 751 mmHg 58%
16:00 +25°C° 0 mm 5 mps 750 mmHg 60%
17:00 +25°C° 0 mm 5 mps 750 mmHg 62%
18:00 +22°C° 0 mm 4 mps 750 mmHg 67%
19:00 +21°C° 0 mm 4 mps 750 mmHg 71%
20:00 +19°C° 0 mm 3 mps 751 mmHg 75%
21:00 +19°C° 0 mm 3 mps 751 mmHg 76%
22:00 +18°C° 0 mm 3 mps 751 mmHg 77%
23:00 +17°C° 0 mm 3 mps 751 mmHg 78%

Tomorrow, 8 August, Saturday

Time Temperature Precipitation Wind Pressure Humidity
00:00 +17°C° 0 mm 3 mps 750 mmHg 80%
01:00 +16°C° 0 mm 3 mps 750 mmHg 81%
02:00 +16°C° 0 mm 3 mps 750 mmHg 83%
03:00 +16°C° 0 mm 3 mps 750 mmHg 84%
04:00 +16°C° 0 mm 3 mps 750 mmHg 85%
05:00 +16°C° 0 mm 3 mps 750 mmHg 87%
06:00 +17°C° 0 mm 3 mps 750 mmHg 80%
07:00 +19°C° 0 mm 3 mps 750 mmHg 74%
08:00 +21°C° 0 mm 4 mps 750 mmHg 67%
09:00 +22°C° 0 mm 4 mps 750 mmHg 63%
10:00 +23°C° 0 mm 4 mps 750 mmHg 59%
11:00 +25°C° 0 mm 4 mps 750 mmHg 55%
12:00 +25°C° 0 mm 4 mps 750 mmHg 54%
13:00 +26°C° 0 mm 4 mps 749 mmHg 54%
14:00 +26°C° 0 mm 4 mps 749 mmHg 53%
15:00 +26°C° 0 mm 4 mps 748 mmHg 56%
16:00 +25°C° 0 mm 4 mps 748 mmHg 58%
17:00 +25°C° 0 mm 3 mps 748 mmHg 60%
18:00 +24°C° 0 mm 3 mps 748 mmHg 66%
19:00 +21°C° 0 mm 2 mps 748 mmHg 71%
20:00 +19°C° 0 mm 2 mps 748 mmHg 77%
21:00 +19°C° 0 mm 2 mps 748 mmHg 79%
22:00 +18°C° 0 mm 2 mps 748 mmHg 82%
23:00 +18°C° 0 mm 2 mps 748 mmHg 84%

Day after tomorrow, 9 August, Sunday

Time Temperature Precipitation Wind Pressure Humidity
00:00 +17°C° 0 mm 2 mps 747 mmHg 86%
01:00 +17°C° 0 mm 2 mps 747 mmHg 88%
02:00 +17°C° 0 mm 2 mps 747 mmHg 90%
03:00 +16°C° 0 mm 2 mps 747 mmHg 91%
04:00 +16°C° 0 mm 2 mps 747 mmHg 93%
05:00 +16°C° 0 mm 3 mps 747 mmHg 94%
06:00 +18°C° 0 mm 3 mps 747 mmHg 88%
07:00 +20°C° 0 mm 3 mps 747 mmHg 81%
08:00 +21°C° 0 mm 3 mps 747 mmHg 75%
09:00 +22°C° 0 mm 3 mps 746 mmHg 69%
10:00 +25°C° 0 mm 4 mps 746 mmHg 64%
11:00 +26°C° 0 mm 4 mps 746 mmHg 59%
12:00 +26°C° 0 mm 4 mps 746 mmHg 57%
13:00 +26°C° 0 mm 4 mps 746 mmHg 55%
14:00 +27°C° 0 mm 4 mps 746 mmHg 53%
15:00 +26°C° 0 mm 4 mps 745 mmHg 55%
16:00 +26°C° 0 mm 3 mps 745 mmHg 57%
17:00 +26°C° 0 mm 3 mps 745 mmHg 59%
18:00 +24°C° 0 mm 3 mps 745 mmHg 65%
19:00 +21°C° 0 mm 2 mps 745 mmHg 71%
20:00 +20°C° 0 mm 2 mps 745 mmHg 77%
21:00 +19°C° 0 mm 2 mps 745 mmHg 80%
22:00 +20°C° 0 mm 1 mps 745 mmHg 82%
23:00 +19°C° 0 mm 1 mps 745 mmHg 84%

10 August, Monday

Time Temperature Precipitation Wind Pressure Humidity
00:00 +19°C° 0 mm 1 mps 745 mmHg 85%
01:00 +19°C° 0 mm 1 mps 745 mmHg 86%
02:00 +18°C° 0 mm 1 mps 745 mmHg 87%
03:00 +18°C° 0 mm 1 mps 745 mmHg 88%
04:00 +18°C° 0 mm 1 mps 745 mmHg 89%
05:00 +17°C° 0 mm 2 mps 745 mmHg 91%
06:00 +19°C° 0 mm 2 mps 745 mmHg 86%
07:00 +20°C° 0 mm 2 mps 745 mmHg 81%
08:00 +21°C° 0 mm 2 mps 745 mmHg 76%
09:00 +24°C° 0 mm 2 mps 745 mmHg 71%
10:00 +25°C° 0 mm 3 mps 745 mmHg 66%
11:00 +26°C° 0 mm 3 mps 745 mmHg 62%
12:00 +26°C° 0.1 mm 3 mps 745 mmHg 59%
13:00 +27°C° 0.1 mm 3 mps 745 mmHg 57%
14:00 +27°C° 0.1 mm 3 mps 744 mmHg 55%
15:00 +27°C° 0 mm 3 mps 744 mmHg 56%
16:00 +26°C° 0 mm 3 mps 744 mmHg 57%
17:00 +26°C° 0 mm 2 mps 744 mmHg 58%
18:00 +24°C° 0 mm 2 mps 744 mmHg 64%
19:00 +23°C° 0 mm 2 mps 744 mmHg 69%
20:00 +20°C° 0 mm 2 mps 744 mmHg 75%
21:00 +20°C° 0 mm 1 mps 744 mmHg 77%
22:00 +20°C° 0 mm 1 mps 744 mmHg 79%
23:00 +19°C° 0 mm 1 mps 744 mmHg 82%

11 August, Tuesday

Time Temperature Precipitation Wind Pressure Humidity
00:00 +19°C° 0 mm 1 mps 744 mmHg 83%
01:00 +18°C° 0 mm 1 mps 744 mmHg 84%
02:00 +18°C° 0 mm 1 mps 744 mmHg 86%
03:00 +18°C° 0 mm 1 mps 744 mmHg 85%
04:00 +16°C° 0 mm 0 mps 744 mmHg 85%
05:00 +16°C° 0 mm 0 mps 744 mmHg 84%
06:00 +20°C° 0 mm 1 mps 744 mmHg 79%
07:00 +21°C° 0 mm 1 mps 744 mmHg 73%
08:00 +23°C° 0 mm 1 mps 744 mmHg 68%
09:00 +24°C° 0 mm 1 mps 744 mmHg 63%
10:00 +25°C° 0 mm 2 mps 744 mmHg 59%
11:00 +27°C° 0 mm 2 mps 744 mmHg 55%
12:00 +27°C° 0.2 mm 2 mps 744 mmHg 54%
13:00 +27°C° 0.2 mm 3 mps 743 mmHg 53%
14:00 +28°C° 0.2 mm 3 mps 743 mmHg 53%
15:00 +27°C° 0.8 mm 3 mps 743 mmHg 56%
16:00 +27°C° 0.8 mm 3 mps 743 mmHg 60%
17:00 +26°C° 0.8 mm 2 mps 743 mmHg 64%
18:00 +25°C° 0.7 mm 2 mps 743 mmHg 69%
19:00 +23°C° 0.7 mm 2 mps 742 mmHg 74%
20:00 +21°C° 0.7 mm 2 mps 742 mmHg 78%
21:00 +20°C° 0.1 mm 2 mps 742 mmHg 81%
22:00 +19°C° 0.1 mm 2 mps 742 mmHg 84%
23:00 +19°C° 0.1 mm 2 mps 742 mmHg 87%

12 August, Wednesday

Time Temperature Precipitation Wind Pressure Humidity
00:00 +18°C° 0 mm 2 mps 742 mmHg 90%
01:00 +17°C° 0 mm 2 mps 742 mmHg 93%
02:00 +17°C° 0 mm 2 mps 742 mmHg 95%
03:00 +16°C° 0 mm 2 mps 742 mmHg 96%
04:00 +16°C° 0 mm 3 mps 742 mmHg 96%
05:00 +14°C° 0 mm 3 mps 742 mmHg 96%
06:00 +16°C° 0 mm 3 mps 742 mmHg 89%
07:00 +17°C° 0 mm 3 mps 742 mmHg 82%
08:00 +18°C° 0 mm 4 mps 742 mmHg 76%
09:00 +19°C° 0 mm 4 mps 742 mmHg 70%
10:00 +20°C° 0 mm 4 mps 742 mmHg 64%
11:00 +21°C° 0 mm 4 mps 742 mmHg 59%
12:00 +21°C° 0 mm 4 mps 742 mmHg 61%
13:00 +21°C° 0 mm 5 mps 742 mmHg 63%
14:00 +21°C° 0 mm 5 mps 742 mmHg 66%
15:00 +20°C° 0 mm 4 mps 742 mmHg 66%
16:00 +20°C° 0 mm 4 mps 742 mmHg 67%
17:00 +20°C° 0 mm 3 mps 742 mmHg 67%
18:00 +19°C° 0 mm 3 mps 743 mmHg 74%
19:00 +17°C° 0 mm 3 mps 743 mmHg 81%
20:00 +16°C° 0 mm 3 mps 743 mmHg 88%
21:00 +14°C° 0 mm 3 mps 743 mmHg 90%
22:00 +14°C° 0 mm 3 mps 743 mmHg 92%
23:00 +14°C° 0 mm 2 mps 743 mmHg 94%
Show more